Wind_Gust
20 18 16 14 17 16 13 12 15 13 16 16 16 15 17 17 15 17 18 14 16 20 20 19 18 17 21 24 25 24 23 23 20 21 20 20 20 23 19 18 19 19 19 18 17 16 16 14 13 12 14 15 15 16 18 18 19 20 22 22 22 21 22 22 24 23 23 23 23 22 23 23 21 22 18 15 16 21 19 22 22 26 25 26 27 24
19 16 14 15 16 13 13 12 11 17 15 18 21 17 17 13 18 14 13 11 17 18 19 20 20 19 19 26 23 23 26 25 22 24 21 20 19 19 20 19 19 19 20 18 15 15 13 13 11 12 13 14 16 17 17 19 20 20 20 21 22 21 22 21 21 23 22 22 23 23 22 24 24 22 20 17 16 19 16 20 23 25 25 26 28 25
18 17 19 14 13 12 12 14 13 18 22 18 19 16 18 15 18 14 16 13 15 16 19 17 18 17 17 20 22 22 26 24 22 21 21 20 20 19 22 19 18 21 18 16 15 14 14 12 11 13 13 14 14 15 17 17 19 19 21 21 21 22 21 22 23 25 24 22 22 23 23 24 24 20 19 18 16 17 16 18 23 24 24 26 26 26
19 16 16 13 10 14 18 13 17 19 17 18 17 16 19 15 18 18 18 11 15 20 18 15 20 18 19 17 19 22 25 21 19 21 20 23 19 20 19 18 19 21 19 15 15 12 13 10 12 12 14 14 14 16 16 18 19 20 22 21 22 22 20 21 22 25 24 22 21 22 23 21 20 22 20 17 16 15 14 18 18 24 24 25 21 23
19 19 14 10 11 17 16 17 15 17 16 18 18 18 20 18 18 21 18 17 13 19 17 19 21 20 20 21 22 22 25 20 22 21 22 26 23 22 18 19 19 18 16 16 14 13 12 11 11 13 14 14 16 16 17 17 20 22 21 21 21 22 19 21 22 23 23 23 21 22 23 20 20 18 18 19 20 19 18 14 18 23 24 25 25 26
18 15 11 11 14 17 19 15 17 18 18 18 14 21 20 18 20 18 18 22 21 20 20 17 22 20 20 21 22 23 24 23 24 25 27 24 20 21 20 20 17 19 16 14 13 13 12 11 10 12 13 14 16 17 16 17 19 19 22 22 21 21 19 21 20 22 22 22 22 24 23 24 23 24 23 22 23 23 21 18 15 18 22 23 26 26
18 12 16 18 17 23 15 14 14 16 19 18 17 15 20 19 19 19 21 19 20 22 15 15 19 21 20 19 20 21 24 26 22 24 24 24 25 23 27 20 20 19 19 16 13 12 13 11 11 12 14 15 16 16 17 17 17 19 21 21 21 21 20 21 20 21 22 20 20 20 21 20 20 21 21 20 20 20 18 16 16 17 17 20 20 24
12 13 19 19 19 18 14 13 14 16 22 17 19 17 16 20 19 19 20 20 24 18 18 17 22 23 23 20 20 25 26 26 24 26 27 29 25 24 20 19 18 18 17 18 15 13 11 10 10 12 13 15 16 17 17 17 17 20 20 21 21 21 21 20 21 20 22 21 20 19 19 19 18 19 20 19 18 17 17 16 14 14 16 16 18 19
18 15 18 16 18 18 16 16 11 14 24 23 18 19 19 19 19 20 21 21 20 19 22 22 17 24 20 18 16 17 21 26 27 27 27 26 27 24 28 26 21 17 19 18 17 13 12 11 10 12 13 15 15 16 17 19 20 20 20 21 20 21 20 20 21 22 21 21 21 19 19 19 19 18 18 16 14 19 17 17 16 16 15 16 15 17
16 19 20 15 18 15 14 15 14 16 24 19 22 19 21 18 18 18 22 20 19 20 21 19 14 18 22 16 17 16 21 22 28 27 26 26 27 22 25 27 25 22 16 18 14 13 12 10 10 10 12 14 15 15 17 18 20 21 20 20 21 20 21 21 20 22 20 19 20 19 18 20 21 19 21 17 16 15 18 19 19 16 15 16 17 16
17 12 13 17 17 17 18 24 15 15 17 19 19 20 19 17 17 16 17 20 20 22 21 12 17 11 23 20 20 16 15 16 19 25 22 26 28 31 28 24 24 22 17 18 16 13 14 12 9 11 13 15 15 15 17 18 22 21 20 20 21 21 21 20 20 20 20 18 18 18 18 18 20 21 19 20 19 16 19 21 21 19 15 17 18 18
14 13 18 17 13 17 13 23 20 19 19 18 21 20 22 17 17 17 15 12 18 18 16 12 11 12 20 11 20 17 16 16 16 21 25 19 27 29 28 26 26 23 22 19 17 17 17 11 9 12 13 15 16 16 18 19 22 22 22 21 21 21 20 19 20 19 19 19 18 17 17 19 19 20 21 19 19 18 15 18 20 17 15 14 17 18
17 13 16 15 13 16 23 21 18 17 17 22 22 19 18 16 15 17 20 19 18 16 13 12 11 17 20 17 14 13 14 14 15 20 29 26 24 24 24 17 24 27 22 16 15 21 15 10 10 12 13 14 15 17 18 20 21 22 21 21 21 22 21 19 19 18 17 18 17 17 17 17 19 18 19 18 16 16 16 15 17 18 17 15 15 20
18 12 17 17 12 13 18 23 16 17 14 18 20 18 16 17 15 13 16 17 19 16 12 13 12 20 15 18 14 13 12 14 14 16 25 25 21 22 28 27 26 26 25 23 16 16 15 13 12 12 13 15 16 17 19 20 22 21 21 20 21 22 20 18 17 17 17 16 16 16 17 17 18 18 17 17 16 16 17 15 13 15 15 14 15 14
12 16 19 14 16 16 23 17 19 20 21 23 23 23 18 21 17 16 16 16 15 19 21 13 21 13 20 17 15 12 13 11 12 20 24 24 22 21 27 24 26 21 20 25 16 20 14 15 10 11 12 14 15 17 20 21 22 21 21 21 21 21 19 18 18 17 17 16 16 16 16 16 17 19 19 18 16 16 16 15 14 13 14 12 14 16
13 18 18 13 15 13 15 14 13 16 20 17 21 18 17 13 15 20 20 21 20 21 22 16 13 19 24 16 16 13 13 12 13 21 24 22 18 24 22 23 19 19 18 13 16 15 16 13 9 10 12 14 15 17 19 21 21 21 21 19 20 21 19 18 17 18 17 16 16 15 15 15 16 17 18 18 17 16 14 14 15 14 13 14 10 11
16 11 17 17 12 13 15 14 14 17 16 16 21 16 20 18 19 16 16 15 13 18 21 14 18 24 26 22 14 14 14 14 14 16 19 18 23 23 22 22 18 15 15 16 22 23 15 10 10 11 13 15 16 19 20 20 21 19 20 19 20 20 18 18 17 17 16 16 16 15 15 15 15 16 16 17 17 18 17 13 13 12 12 11 12 12
19 20 14 14 13 15 12 11 12 12 16 20 18 20 18 15 17 15 18 10 16 18 14 15 15 17 21 12 15 16 14 16 16 17 18 17 18 18 16 14 13 21 21 20 17 14 12 9 9 14 13 16 18 17 19 19 19 18 19 18 19 19 19 18 18 17 16 16 15 14 14 15 15 16 16 15 16 17 16 15 13 12 13 10 13 14
16 18 18 12 15 18 10 11 12 11 11 20 21 16 21 11 11 15 13 13 14 12 16 17 15 22 18 16 17 17 16 16 17 17 18 19 18 17 16 15 13 12 10 11 11 10 10 11 10 12 13 17 17 18 19 19 20 18 18 19 19 18 18 17 17 17 17 16 15 15 15 15 16 16 15 14 14 14 16 17 15 14 13 12 11 11
10 18 19 13 13 14 14 15 13 17 14 13 16 16 16 21 15 17 17 16 20 17 13 13 20 13 18 17 16 14 15 15 16 17 18 17 17 17 16 15 16 16 14 14 15 15 16 12 10 12 13 18 18 18 19 18 18 18 18 19 19 18 18 17 17 16 16 15 15 15 16 15 16 16 16 15 14 14 15 15 16 16 14 14 14 11
13 12 14 22 12 14 19 18 13 13 13 13 15 13 13 16 15 19 18 19 17 19 16 16 16 19 19 17 16 13 12 14 15 16 16 17 16 15 12 11 16 15 11 11 12 13 10 12 10 11 13 17 18 19 19 18 18 18 19 19 20 19 18 17 16 16 16 16 15 14 14 16 15 15 16 14 13 14 14 13 14 15 15 15 15 14
13 12 15 19 16 17 16 18 12 11 12 15 17 16 16 15 17 12 14 15 14 17 16 17 17 19 19 19 18 16 13 12 14 15 15 15 15 13 12 10 9 11 9 10 9 11 11 11 11 11 15 16 19 18 19 18 18 18 18 21 21 20 19 18 17 17 16 15 15 15 15 15 15 15 15 15 14 13 13 12 12 12 14 15 16 15
15 19 19 16 15 14 16 14 11 10 9 11 15 13 14 14 14 15 17 13 19 19 14 17 17 14 16 17 16 14 13 15 19 14 15 16 16 13 13 11 10 10 11 10 10 11 9 9 10 13 15 17 19 19 18 17 19 19 19 20 20 20 19 18 17 17 16 15 15 15 15 15 15 15 15 15 14 13 13 12 11 11 12 14 15 16
8 20 16 19 16 23 22 15 11 10 10 14 13 13 13 11 12 13 15 18 21 21 19 11 18 16 16 13 12 11 12 12 12 12 14 17 14 13 13 11 16 15 11 11 11 10 10 9 11 14 15 19 19 19 17 18 19 19 19 20 20 19 19 18 17 17 16 16 16 15 15 15 14 14 15 14 14 15 14 15 13 12 11 12 12 14
16 12 16 18 17 18 20 16 15 15 17 15 14 12 10 11 10 13 17 14 17 12 16 17 18 12 15 16 16 11 13 13 14 15 14 15 13 13 14 12 12 13 11 12 11 10 9 10 12 16 18 19 19 19 17 19 20 19 19 19 20 18 18 18 17 17 17 15 15 15 15 14 14 15 16 15 15 14 15 13 13 12 12 11 12 12
17 14 17 17 17 14 12 10 11 9 10 11 9 9 10 9 4 11 14 8 18 13 14 17 19 14 20 16 15 12 15 13 11 13 15 14 17 16 14 12 11 12 12 11 11 10 11 13 14 15 15 19 19 19 18 18 19 19 18 18 17 18 18 18 17 17 16 16 15 15 13 14 14 15 16 17 16 14 14 14 13 13 12 12 13 13
16 14 17 17 17 17 15 15 11 13 13 11 11 11 10 9 11 10 13 19 16 15 19 17 14 20 20 19 19 20 13 12 12 14 15 16 15 15 13 14 12 12 12 12 11 11 9 10 12 14 15 18 18 17 18 17 17 18 18 19 18 18 18 17 17 17 15 16 14 14 14 14 14 15 14 16 15 14 15 13 13 13 14 13 14 15
16 16 13 15 16 17 18 15 12 12 9 10 9 8 13 10 10 5 15 15 13 16 24 17 13 14 18 19 18 18 14 12 11 12 13 14 13 14 13 11 8 13 13 12 12 11 11 11 12 13 15 17 17 17 17 16 16 16 17 19 19 19 19 17 15 15 15 14 14 14 14 14 14 13 14 14 15 15 12 12 13 14 14 16 15 14
15 13 15 16 15 16 15 16 14 14 13 12 13 8 7 6 7 10 10 19 13 17 25 19 22 22 21 21 19 18 16 13 12 14 12 11 14 13 11 14 14 14 12 12 12 11 10 11 11 13 15 15 14 15 13 15 15 15 16 18 20 20 19 17 15 16 15 15 14 14 13 13 12 13 13 14 15 15 14 14 14 13 14 14 14 14
18 18 16 14 18 17 17 17 17 15 15 15 15 15 13 13 14 13 13 20 15 14 21 23 22 25 25 22 17 13 14 11 10 10 9 12 13 14 14 13 14 13 12 11 10 10 9 10 11 13 14 14 15 14 14 13 15 16 16 17 18 19 20 17 16 16 16 15 14 14 14 14 12 13 13 14 14 14 16 16 14 14 13 13 14 14
15 14 15 17 20 19 17 22 24 15 15 18 18 16 10 8 5 7 6 9 10 11 19 21 22 24 23 13 10 9 9 10 10 13 13 13 13 13 13 13 13 13 12 11 9 9 9 10 11 13 15 14 13 13 13 13 14 14 16 17 18 20 20 18 16 16 16 15 14 14 13 13 13 13 15 14 14 14 16 16 15 14 14 14 13 14
16 17 17 20 19 20 18 22 19 16 17 15 10 7 10 9 7 9 12 12 10 10 5 4 14 21 14 13 9 10 12 13 14 12 13 12 12 12 14 13 13 12 10 10 10 9 10 10 11 13 14 13 12 12 12 13 14 14 16 17 17 19 20 17 15 16 16 15 14 14 14 14 14 14 14 14 15 16 16 15 14 15 14 14 14 14
17 19 18 15 18 20 18 19 17 18 18 18 14 12 19 13 5 9 13 14 12 9 7 14 15 15 13 13 14 13 15 12 15 15 14 12 11 12 14 13 13 11 9 9 11 10 9 10 11 11 12 12 13 13 12 13 14 16 17 17 17 18 18 18 16 16 15 15 14 14 14 14 14 14 14 15 15 16 15 15 16 16 15 14 13 13
18 18 20 20 21 18 19 17 22 22 19 15 17 16 15 17 17 9 7 15 20 22 18 19 19 18 18 15 15 14 12 12 11 11 10 14 14 11 11 12 12 11 10 10 10 10 8 10 10 11 11 11 11 12 11 11 13 14 15 16 16 17 18 17 17 16 15 15 14 14 14 14 13 13 14 15 16 16 15 15 16 15 14 13 13 13
19 18 18 21 20 21 18 17 17 18 19 19 15 21 13 9 12 14 16 16 15 22 23 24 22 20 16 15 15 15 13 11 10 12 10 10 11 12 13 13 13 11 10 11 10 9 12 11 8 9 11 13 12 11 10 11 13 15 15 15 16 17 17 17 17 15 15 14 14 13 13 14 14 14 15 16 16 15 15 16 16 15 14 13 12 13
17 18 17 19 19 19 18 15 15 10 16 20 18 16 9 10 11 13 17 18 16 18 21 22 20 19 16 16 15 14 13 10 11 14 13 11 11 11 12 14 12 11 11 11 10 10 9 8 8 10 11 11 12 11 12 12 12 14 16 14 15 16 16 16 17 16 15 14 13 13 13 13 14 14 15 14 14 15 16 16 15 15 13 13 12 11
20 22 19 21 15 20 16 17 23 22 22 16 14 15 16 12 13 13 15 18 10 10 14 16 17 18 16 15 14 13 9 12 15 18 18 14 13 10 10 8 9 11 11 11 12 12 11 11 10 11 9 11 11 11 12 12 12 13 14 14 14 15 16 16 17 16 14 13 14 13 13 13 13 13 13 15 15 16 16 15 15 14 13 12 12 11
18 22 15 17 15 16 18 19 21 15 16 11 12 16 11 10 13 12 15 20 9 9 9 12 16 15 13 11 10 11 9 15 16 17 20 14 12 9 9 9 11 12 12 13 11 12 12 12 14 10 8 10 10 10 11 11 13 13 14 13 14 14 15 16 17 16 14 13 13 12 11 11 13 13 14 15 16 17 16 15 14 14 13 12 12 12
18 19 21 19 20 16 17 20 20 18 14 16 14 10 8 13 14 13 16 13 14 11 12 14 14 13 12 11 12 13 14 17 16 21 19 15 11 12 9 12 13 13 13 13 13 13 13 12 9 7 7 8 9 10 10 11 10 13 14 13 12 14 14 15 15 14 15 14 14 13 12 12 12 13 13 14 15 15 16 17 16 15 13 12 11 11
16 15 15 20 17 19 18 21 21 16 13 10 13 15 16 13 9 16 17 12 12 12 12 12 13 12 11 9 11 13 12 13 14 21 15 15 12 10 10 12 14 14 14 14 13 12 12 12 12 8 8 9 10 9 10 11 13 12 14 11 12 14 15 14 13 13 12 11 11 12 12 11 11 12 12 13 14 15 15 15 16 16 14 12 14 14
15 14 15 19 19 18 16 23 22 23 18 16 16 14 11 8 13 14 17 12 14 12 12 12 11 11 11 12 13 13 11 14 16 13 14 11 11 11 10 10 13 14 14 14 15 12 14 14 10 7 7 9 8 10 10 11 11 12 12 10 12 13 14 13 13 13 13 12 12 12 12 12 12 12 11 12 12 13 13 14 15 15 15 14 12 12
19 17 15 15 19 20 16 21 23 20 16 14 12 13 12 12 15 16 18 15 16 13 10 10 11 10 11 11 11 12 11 13 13 12 11 10 8 10 10 12 14 14 11 12 16 15 13 12 10 9 7 7 8 9 9 11 11 13 13 11 12 12 13 13 13 13 14 15 13 13 12 12 12 11 11 12 11 12 13 13 13 14 14 13 11 11
17 18 18 17 18 18 16 20 20 21 10 15 10 14 13 13 12 15 18 14 12 14 14 13 14 12 11 10 11 11 9 10 10 11 10 9 9 10 11 13 13 14 17 21 16 14 12 13 12 10 8 7 8 9 9 9 10 11 12 12 10 12 12 12 12 14 15 15 15 13 12 12 11 11 11 11 12 13 14 14 14 14 13 13 12 12
11 18 18 18 16 21 19 20 17 16 15 16 20 11 15 19 19 20 18 20 15 14 14 18 17 15 14 12 11 12 11 10 11 10 10 10 11 10 11 12 13 14 14 14 13 15 13 12 13 10 9 9 9 9 8 9 10 11 11 10 9 10 10 11 13 13 13 13 13 13 12 12 11 11 11 12 13 14 15 16 15 15 16 14 14 13
14 17 15 16 15 16 19 18 16 21 19 19 19 18 19 20 18 16 17 19 19 18 15 18 15 13 15 14 13 12 12 12 12 12 11 10 12 12 12 13 13 14 13 13 14 14 16 14 10 12 11 11 9 9 11 10 11 9 10 10 12 11 11 11 12 12 12 13 13 13 13 13 14 15 13 12 13 14 15 14 15 15 15 14 15 15
18 17 13 19 22 16 20 22 19 21 18 17 17 19 17 17 20 19 18 19 17 21 18 18 15 14 15 16 18 17 15 11 12 12 12 11 11 12 12 12 14 15 14 19 17 18 15 17 11 11 10 10 9 11 10 11 8 9 9 10 10 10 9 10 10 11 12 11 11 12 12 14 11 12 13 13 12 12 14 15 16 18 17 16 15 15
25 18 16 20 16 18 22 12 15 15 14 16 19 17 17 18 19 20 20 20 17 18 19 17 18 17 18 19 19 18 16 15 12 12 12 12 12 12 13 13 13 15 15 14 13 18 17 12 13 11 10 10 10 11 13 12 11 10 9 8 11 10 9 9 9 10 11 10 9 10 11 12 14 12 12 12 12 13 14 15 15 17 18 18 18 16
14 22 20 19 20 25 24 21 21 21 21 21 22 20 18 17 19 20 19 19 20 21 21 20 20 21 20 18 16 19 18 17 18 13 13 13 13 13 14 14 14 15 14 14 17 20 15 15 12 13 14 16 13 12 10 10 11 11 9 11 12 11 10 9 10 12 10 9 8 10 9 9 5 11 12 13 15 16 15 15 15 17 19 20 20 19
20 15 18 16 25 26 23 23 26 26 26 22 19 17 16 16 16 16 16 18 20 21 21 19 16 18 17 18 18 19 21 18 17 14 13 12 13 13 13 14 14 15 15 15 14 15 16 15 15 13 11 11 11 12 11 10 10 11 10 10 11 11 10 9 9 12 8 10 8 8 8 8 10 11 10 14 14 16 18 17 17 16 17 18 18 18
23 27 22 23 26 23 24 22 21 23 19 22 19 16 16 17 19 19 19 19 18 19 19 19 19 19 19 20 21 20 21 18 17 16 13 13 12 12 12 13 14 16 15 14 15 15 15 14 14 14 13 14 12 12 12 11 12 12 13 14 12 11 11 10 10 10 10 9 8 9 8 8 8 8 8 11 16 17 16 7 8 12 16 15 8 5
26 22 22 24 23 24 20 23 22 22 23 22 22 19 19 18 19 20 21 21 21 20 19 19 20 19 20 20 20 22 20 19 19 17 14 13 13 12 13 13 14 16 16 15 16 17 16 15 15 14 14 14 12 13 12 12 13 13 13 14 13 12 12 13 12 12 10 11 10 13 12 9 8 9 8 9 13 18 18 17 13 11 12 9 7 5
Wind_Speed
7 2 5 4 4 6 4 2 4 6 6 8 5 7 6 5 6 5 7 6 8 5 7 9 8 8 12 11 12 11 9 7 3 9 8 9 5 3 6 8 7 8 8 6 7 9 9 8 6 5 5 5 6 6 7 7 7 7 9 8 8 9 7 7 5 6 7 8 8 7 7 7 7 7 7 5 5 2 5 7 3 3 4 5 8 9
6 3 4 4 6 4 5 3 3 6 7 8 7 8 7 3 6 1 3 2 5 6 7 9 12 5 8 12 12 12 10 9 3 7 8 9 8 6 11 3 9 9 7 6 5 7 7 6 7 5 4 6 6 6 7 9 7 8 8 7 7 7 7 7 6 7 6 7 7 8 7 7 7 7 7 8 5 5 5 4 5 4 6 6 8 10
2 3 6 6 3 5 4 5 5 5 7 7 5 5 4 4 5 4 6 4 3 3 5 9 7 5 6 10 13 10 10 6 5 8 8 9 7 4 8 8 4 7 7 6 5 6 6 6 7 6 4 5 5 6 6 7 8 8 7 7 8 7 8 6 6 7 7 7 7 8 7 7 6 5 5 5 5 6 5 3 4 5 4 6 8 8
5 1 9 3 3 4 10 1 5 8 6 6 4 4 3 6 6 4 4 5 7 7 6 7 8 6 9 4 8 8 8 5 7 8 7 9 10 10 5 4 10 8 6 5 5 6 5 5 5 5 4 3 4 5 6 7 7 7 6 8 8 7 7 7 6 7 7 8 8 8 8 8 4 6 6 5 5 7 7 6 4 4 6 6 8 7
2 2 7 4 2 8 8 8 4 4 4 2 5 4 6 4 6 6 6 5 4 10 9 6 7 8 4 5 4 7 9 9 9 7 6 10 10 8 4 2 8 4 4 5 3 5 4 4 5 5 5 2 5 5 6 6 6 6 6 7 8 6 7 6 8 9 8 7 7 6 7 7 6 5 5 6 7 8 8 7 5 6 6 7 6 6
7 1 4 4 6 6 8 6 6 4 6 5 4 6 11 8 4 8 10 10 8 6 7 8 6 4 5 8 4 8 4 5 6 6 7 8 10 10 7 6 4 2 3 3 3 3 5 5 4 4 5 4 6 6 6 6 5 6 8 9 8 7 6 7 7 9 8 7 7 8 8 8 7 7 7 9 9 9 9 9 7 7 5 6 6 6
6 5 5 9 2 14 4 1 6 3 5 6 2 5 11 11 10 11 11 8 7 7 3 3 6 5 4 5 1 9 9 6 2 4 9 9 6 10 8 7 4 6 5 5 3 3 4 3 3 4 4 5 7 6 6 5 8 6 7 7 7 7 6 7 8 9 7 8 7 8 8 7 7 7 5 5 5 5 8 8 7 6 6 4 3 7
3 3 6 10 1 9 4 5 2 6 7 3 10 6 7 10 11 11 11 9 8 6 9 4 3 5 6 5 5 16 14 11 10 9 7 5 7 8 7 7 4 3 7 4 4 4 2 4 3 4 4 4 6 6 6 4 6 7 6 7 7 7 7 8 9 9 9 8 8 8 8 7 7 7 8 7 7 6 7 8 7 4 6 5 4 7
7 6 9 7 5 4 4 6 5 6 4 9 10 10 10 11 11 11 9 9 8 7 7 6 6 6 5 4 6 10 9 8 6 4 4 8 7 6 10 9 9 7 5 3 4 4 4 4 4 3 4 6 6 5 4 6 8 5 6 6 6 7 7 8 9 9 9 9 9 8 7 7 7 7 6 6 6 5 7 8 9 5 5 6 5 2
2 3 9 7 4 4 1 4 6 8 8 8 11 9 10 10 10 9 8 8 8 6 6 8 4 4 6 5 3 5 4 5 2 4 6 11 14 12 10 9 11 7 2 4 6 4 5 4 4 3 4 5 4 3 6 6 7 8 7 7 6 7 7 8 9 8 9 10 8 9 8 9 8 8 7 6 6 6 6 8 9 9 5 3 3 3
3 4 6 6 6 6 7 11 7 4 8 9 10 10 8 7 5 7 6 6 6 5 4 5 10 3 5 4 8 4 1 7 7 8 7 6 11 10 9 9 9 9 4 3 8 6 6 3 3 3 4 4 5 5 5 6 8 7 8 7 7 8 8 8 8 9 9 8 8 8 9 11 10 9 8 8 8 7 8 8 8 10 8 4 3 1
2 2 6 4 5 7 4 11 7 7 10 4 6 7 9 8 5 5 5 2 5 3 6 3 2 3 3 1 9 6 5 5 3 1 9 5 6 6 5 8 9 9 6 4 10 7 8 6 4 5 4 4 5 3 7 6 7 8 7 7 8 8 8 8 8 8 9 8 8 8 9 9 9 9 8 8 8 7 8 8 8 7 8 7 4 1
2 3 4 5 6 4 5 6 2 4 7 6 8 6 5 3 3 3 4 4 5 4 5 4 1 5 5 5 5 6 7 7 4 2 3 8 10 9 8 8 7 7 5 4 7 7 6 5 3 6 4 5 6 6 8 9 6 7 7 8 10 8 7 8 8 8 8 8 8 8 9 8 8 9 9 8 7 7 6 7 7 7 7 8 7 5
2 4 3 5 2 5 7 8 4 3 5 5 6 3 5 4 3 4 3 3 4 5 1 4 3 7 5 8 4 5 5 6 6 8 5 6 6 8 8 8 7 7 8 8 9 8 6 6 5 4 4 5 4 6 6 5 6 6 8 7 8 9 8 6 7 8 8 8 7 7 7 7 7 8 8 7 7 6 6 5 6 6 6 6 5 6
4 2 7 5 3 3 8 5 7 7 6 7 9 9 6 6 4 3 3 6 5 6 9 3 4 3 7 4 1 6 7 5 6 11 9 4 4 7 8 8 9 10 9 13 7 11 8 8 6 3 3 2 4 6 5 5 5 6 2 7 7 8 8 7 7 7 9 8 8 8 7 7 7 7 6 7 6 7 7 6 6 6 5 6 5 4
4 4 6 1 8 3 5 6 4 3 6 1 7 6 2 3 2 4 4 7 6 7 6 3 2 8 8 5 8 6 4 6 4 13 13 9 7 6 6 6 8 9 10 6 9 8 10 8 4 3 2 3 2 3 4 7 6 8 6 6 7 7 7 6 7 7 7 7 7 8 8 8 8 7 7 6 6 6 7 7 6 6 4 4 5 4
6 1 5 2 3 4 7 6 6 4 4 5 6 4 5 4 6 3 5 4 5 4 5 1 4 9 9 9 7 6 3 5 5 7 10 10 12 10 8 9 10 6 3 2 12 11 6 6 4 2 4 4 6 6 4 4 5 8 6 5 6 6 5 5 6 6 7 7 7 8 8 7 7 8 8 8 8 7 6 6 6 5 5 3 4 5
6 7 5 3 4 8 4 2 3 5 4 6 4 7 7 7 5 3 4 1 3 4 2 3 5 2 3 5 3 7 6 3 5 5 7 7 9 8 7 7 5 12 12 11 9 7 6 4 2 7 6 6 6 6 4 3 3 4 4 4 5 6 6 6 7 6 6 7 7 6 7 7 7 7 8 7 8 7 7 6 6 6 4 4 2 2
5 5 4 5 8 8 3 1 4 5 3 5 6 6 6 2 3 2 2 3 4 3 3 6 6 6 8 6 5 6 4 2 0 2 4 6 6 4 4 4 3 7 5 5 3 2 4 5 5 5 5 2 4 8 2 6 5 4 4 6 6 7 7 7 6 6 5 6 6 6 7 7 7 7 6 6 7 5 6 7 6 7 6 4 4 3
3 3 3 4 3 6 4 3 3 1 6 2 5 6 7 3 5 3 2 5 3 6 4 4 7 4 7 5 9 8 6 4 0 1 2 2 5 3 5 7 8 6 5 2 1 6 6 5 5 4 2 6 6 6 4 4 4 5 3 4 4 5 7 8 7 6 6 5 5 7 6 6 7 7 8 7 6 5 6 6 6 6 6 6 4 5
3 3 4 2 2 4 3 2 4 3 5 3 2 4 3 3 6 6 3 4 4 5 5 4 5 5 7 6 8 6 4 2 2 1 1 1 4 7 3 6 10 8 5 2 4 3 5 7 4 4 5 4 5 6 3 5 3 4 4 5 8 8 7 7 7 7 6 6 6 7 7 7 6 7 7 8 7 6 6 5 5 5 5 5 5 5
2 4 5 7 6 2 5 8 4 4 4 5 5 3 4 3 4 3 1 4 4 4 3 4 4 6 4 6 5 6 6 5 4 8 2 2 8 4 3 3 3 3 5 4 3 2 4 5 5 4 3 6 4 5 2 4 5 6 6 8 7 8 6 5 6 6 7 6 6 6 7 8 7 7 7 8 7 7 6 5 4 4 4 4 5 5
4 4 5 6 5 1 7 5 5 4 2 3 4 3 4 5 5 3 5 4 7 7 2 4 4 3 1 4 5 4 6 4 9 7 3 7 4 6 4 5 5 6 6 4 3 3 5 4 3 2 5 5 5 4 7 7 5 4 6 7 7 8 7 5 5 6 6 6 6 6 6 6 7 7 7 8 7 7 7 6 5 4 4 5 4 5
5 4 3 7 2 11 13 8 6 6 3 4 5 1 1 2 4 3 3 5 4 8 6 3 4 2 1 3 3 3 3 4 4 4 7 4 3 3 4 6 11 6 5 3 3 1 2 2 1 4 5 5 6 5 4 3 5 6 5 6 6 7 7 5 5 5 6 6 7 7 6 5 6 6 7 7 6 8 8 7 6 6 5 5 4 5
4 2 5 5 3 3 5 8 3 6 7 0 2 4 4 3 4 5 6 5 4 4 3 2 5 3 2 4 6 5 2 7 6 8 5 3 5 3 3 3 6 8 5 5 3 2 1 2 0 3 7 8 8 9 6 6 7 5 4 6 7 7 7 6 5 5 5 5 6 6 6 6 6 6 7 8 7 8 8 7 6 5 5 4 5 5
5 5 5 5 6 3 1 2 2 1 1 2 1 1 1 1 0 2 3 1 5 2 4 2 5 2 6 6 8 7 7 5 3 5 3 3 4 6 8 7 1 4 3 2 1 3 4 1 2 3 4 6 7 8 8 6 5 5 5 5 4 5 6 7 4 5 6 5 6 6 7 6 7 8 8 8 7 7 7 6 6 7 3 3 4 5
4 6 6 7 4 4 5 6 2 0 1 1 5 5 5 2 2 3 2 5 3 4 4 6 6 7 7 7 9 12 7 6 3 3 2 2 3 2 0 3 3 2 3 1 1 3 3 4 2 2 3 3 6 7 8 6 5 6 5 5 6 5 5 7 3 5 5 5 5 6 6 6 6 6 7 7 6 6 6 6 5 6 6 7 6 5
5 6 5 8 8 7 8 9 5 3 1 4 1 1 4 3 3 1 3 4 6 4 7 2 7 6 9 8 10 9 8 7 3 2 3 2 3 4 3 2 1 1 1 1 3 3 3 2 2 1 2 3 5 7 9 7 6 6 5 6 6 5 4 5 4 5 6 6 5 5 6 5 5 6 7 6 6 5 6 5 5 5 5 7 7 7
6 4 7 9 9 9 9 8 8 6 5 5 5 5 4 2 2 2 3 8 6 4 7 7 12 12 10 10 11 9 8 6 6 3 4 6 5 6 4 3 2 2 2 3 2 6 5 3 2 2 2 4 4 5 6 7 6 5 5 6 6 6 6 7 3 5 6 6 6 5 5 4 4 5 6 6 6 5 5 6 6 7 7 6 7 6
5 5 8 8 10 10 10 9 11 10 7 5 6 6 6 4 8 8 7 9 7 6 9 10 12 13 12 12 10 6 8 6 5 6 2 4 4 3 3 3 4 3 3 4 2 2 6 5 3 1 1 2 3 6 7 5 5 6 6 6 6 6 6 6 4 6 6 6 6 6 6 6 5 6 6 5 6 6 6 7 6 7 6 7 7 7
2 1 7 9 9 9 6 11 15 9 8 8 5 6 3 3 2 1 1 3 5 4 8 10 11 11 11 6 5 4 4 3 3 5 2 4 4 5 5 4 4 4 4 3 3 2 2 4 3 2 2 3 5 5 4 4 4 4 5 5 5 6 6 7 4 6 6 6 7 8 7 6 7 7 7 7 4 5 6 6 5 5 6 6 7 7
2 5 6 8 7 9 3 2 10 11 5 4 5 1 7 6 3 3 2 3 4 4 2 2 4 4 5 3 4 4 2 4 8 4 3 2 2 4 4 4 3 5 5 5 3 0 3 1 1 1 3 4 4 5 4 3 4 5 5 6 6 6 6 6 5 6 7 7 7 7 7 7 7 6 5 5 6 6 6 5 6 7 6 6 6 6
4 5 3 2 6 8 8 6 6 9 9 4 4 5 8 6 2 3 4 5 5 4 1 3 4 5 2 3 5 6 9 4 6 8 5 3 2 2 4 3 3 4 4 2 2 2 0 1 2 2 4 3 4 5 6 6 5 5 5 5 4 4 4 6 5 6 8 7 6 6 6 7 7 6 4 5 5 4 5 6 7 7 6 6 4 4
7 6 5 4 2 7 12 9 4 4 8 5 7 9 8 8 6 4 3 6 9 8 5 6 9 9 10 8 7 6 5 6 5 2 2 3 3 4 5 4 3 1 3 3 1 3 4 5 5 5 6 4 4 6 5 3 4 4 4 5 4 4 5 7 6 8 7 6 6 6 6 7 7 6 5 5 5 5 6 5 5 4 4 4 3 3
7 6 4 5 2 6 8 9 6 7 2 5 1 8 6 1 7 8 7 8 8 12 11 10 9 9 8 7 7 7 5 6 5 4 4 2 2 2 3 5 3 2 3 1 3 2 8 6 5 3 3 2 5 4 3 4 5 5 6 5 3 4 5 6 6 8 7 6 4 4 5 6 7 7 6 5 5 5 5 4 3 4 2 3 3 3
4 4 4 3 3 6 6 4 5 2 2 1 3 6 2 3 3 4 5 3 3 3 7 8 8 9 7 7 6 5 7 1 1 2 3 4 5 3 1 6 7 6 3 4 6 5 4 4 5 6 5 5 3 4 4 4 4 5 7 4 3 3 5 5 6 7 6 5 4 4 4 5 5 6 6 6 6 6 6 6 5 3 1 1 1 2
8 6 4 5 4 5 4 6 7 5 5 1 1 5 4 3 4 2 3 5 3 1 2 3 3 4 5 6 5 6 3 2 4 4 7 5 7 1 2 2 3 2 4 6 7 7 6 7 6 7 5 4 5 1 3 3 3 5 7 6 4 4 5 5 6 5 5 5 4 4 4 5 5 6 6 6 6 7 6 5 6 5 4 2 2 2
5 7 1 1 2 3 6 7 5 5 6 1 4 5 2 4 2 2 2 4 4 1 2 4 3 4 5 4 3 4 3 3 5 5 7 6 6 3 2 1 4 4 5 7 3 7 7 7 9 5 3 4 4 2 0 2 3 5 4 3 3 4 5 6 5 5 4 3 5 5 4 4 5 5 5 5 6 5 5 4 3 4 4 3 2 3
6 7 5 4 5 4 6 7 5 6 1 3 4 3 3 1 2 4 5 4 4 1 4 2 3 4 4 4 4 2 3 4 3 4 5 6 4 2 2 4 5 5 5 5 4 4 8 6 6 4 4 2 3 2 1 2 3 5 4 2 3 4 4 5 5 4 4 3 4 3 4 4 5 6 5 5 4 4 4 4 3 3 3 4 2 3
5 4 3 5 6 5 6 6 7 2 1 5 7 8 1 4 2 6 5 2 6 1 2 3 3 3 4 3 4 3 1 3 1 5 5 4 3 2 1 5 6 6 6 6 5 5 5 7 5 3 3 3 2 2 0 2 4 3 4 3 2 4 4 4 3 4 3 3 6 4 4 3 4 4 4 4 3 2 1 2 1 2 3 3 2 3
3 3 3 6 6 7 6 6 4 3 3 2 0 1 3 2 5 4 5 2 3 4 5 4 4 1 3 4 3 4 3 4 4 6 4 4 4 4 2 5 8 5 5 6 6 8 6 6 4 3 3 1 1 1 0 1 4 3 2 2 2 3 4 3 3 5 6 4 5 6 6 5 4 2 2 1 1 1 2 2 2 2 2 3 2 1
7 5 4 5 7 6 6 7 7 3 1 3 1 3 3 3 3 4 3 2 2 2 3 2 5 4 3 3 2 4 3 4 5 4 6 5 4 5 4 5 8 5 3 4 10 9 4 6 6 3 2 1 2 1 1 2 3 4 2 2 2 2 2 2 4 1 5 7 5 7 6 3 1 2 3 3 0 1 1 2 1 1 1 1 1 1
4 3 5 6 5 5 3 6 5 6 1 4 3 2 6 1 2 4 1 3 1 5 4 5 6 6 6 3 2 1 1 3 5 5 4 4 5 5 4 6 7 7 10 9 8 4 4 7 6 6 3 4 3 2 3 3 2 4 2 3 4 2 1 4 2 3 5 4 7 3 4 5 3 3 1 1 2 1 2 3 1 1 1 1 1 1
4 3 4 5 3 7 5 4 3 1 4 1 2 1 5 3 6 10 6 4 9 6 4 3 3 5 10 4 4 4 2 3 4 4 4 5 5 5 6 4 5 7 9 9 7 7 4 3 7 5 5 4 5 4 3 4 3 3 1 3 4 3 4 2 3 5 5 3 3 3 3 4 3 2 1 1 1 2 4 5 6 2 0 1 2 1
6 4 2 2 4 3 4 5 4 0 1 3 5 2 6 9 10 10 9 4 3 2 4 6 4 5 7 7 7 6 4 3 3 5 6 5 4 6 6 6 6 6 7 5 5 6 10 7 6 8 7 6 5 4 4 5 5 3 4 2 2 6 1 1 4 1 2 1 4 4 4 1 3 4 5 3 3 2 4 3 4 6 8 5 3 4
9 7 6 1 4 5 8 9 7 8 5 4 3 4 6 5 5 4 5 7 4 4 5 7 7 4 4 2 2 2 5 6 3 3 5 5 5 5 5 7 8 7 7 8 9 10 9 8 5 5 3 5 5 4 5 3 0 0 1 4 2 4 2 3 3 2 3 4 3 2 1 5 1 5 2 6 6 5 3 5 5 5 6 7 7 4
10 4 1 4 4 5 3 1 3 5 5 8 9 9 8 6 6 2 4 6 7 5 4 5 7 8 9 8 6 5 6 10 6 4 4 4 5 5 7 6 7 8 6 7 7 9 6 6 3 4 5 3 6 4 4 7 5 3 1 2 5 4 1 3 1 2 4 3 1 5 2 1 3 3 4 4 5 4 4 4 6 5 6 5 6 7
3 7 7 6 7 7 7 9 12 11 11 11 10 8 9 5 3 6 2 5 4 6 7 6 3 5 10 11 5 3 3 7 12 6 4 5 5 5 7 7 7 7 6 2 5 14 9 6 5 5 6 7 4 5 5 3 3 4 4 5 4 5 3 0 2 2 2 2 3 2 0 3 3 5 4 4 4 4 4 4 5 5 5 5 5 4
4 6 4 7 9 9 11 13 7 12 12 12 9 4 7 5 5 3 5 8 11 9 7 7 7 9 10 8 7 3 4 5 9 8 6 5 5 5 6 7 7 8 7 7 3 9 6 7 6 6 6 6 6 6 5 4 3 5 4 3 3 4 5 3 5 3 2 3 1 2 2 0 2 2 4 6 4 4 4 4 4 5 4 4 4 4
10 10 9 9 9 6 7 8 9 7 5 9 11 10 8 5 5 9 9 9 9 11 7 9 9 8 10 7 6 6 6 5 7 11 7 6 5 6 5 6 7 9 8 8 7 8 7 7 7 6 5 4 3 5 6 5 4 4 5 5 5 3 1 3 3 3 5 3 0 3 2 1 3 2 2 6 6 5 4 6 6 5 4 3 1 2
8 9 8 7 5 7 10 12 11 9 9 7 9 10 11 11 8 9 10 11 12 11 11 11 12 11 10 8 6 7 7 5 6 11 8 5 4 4 5 6 7 8 9 8 7 10 9 7 7 7 7 5 5 6 6 6 5 5 6 6 5 5 4 5 4 4 4 4 3 2 1 3 1 1 1 3 7 6 6 4 6 10 10 8 5 5
Wind_Direction
250 103 286 17 244 199 208 4 282 334 310 324 263 267 293 321 298 23 283 185 156 271 279 278 255 256 171 178 179 182 195 244 172 136 165 133 120 99 243 161 135 119 122 113 96 92 91 83 75 62 59 34 48 29 34 15 12 18 9 5 3 358 349 351 1 10 354 350 340 341 338 344 337 335 331 339 332 6 282 298 267 215 246 198 208 225
297 233 238 310 10 7 20 25 284 273 286 266 302 291 300 174 264 172 318 58 296 284 292 285 302 317 134 173 172 172 174 217 177 190 159 148 143 79 354 267 145 127 115 114 114 102 96 100 91 68 50 34 34 25 33 11 360 25 3 359 0 4 339 1 355 18 357 352 342 329 334 332 336 334 339 335 334 335 326 289 271 217 211 225 212 216
280 14 295 255 301 5 351 286 321 278 263 278 277 284 278 297 346 307 246 181 231 359 294 293 284 261 259 172 157 162 175 200 129 223 212 107 91 104 112 329 177 132 130 126 120 105 104 90 74 78 54 34 49 26 27 23 350 26 354 2 354 6 343 1 352 17 5 336 335 326 328 325 330 324 330 332 335 328 330 317 275 272 241 211 216 220
10 172 236 318 19 278 278 97 302 314 327 328 297 304 283 304 290 331 116 357 285 246 273 264 269 272 273 339 118 162 159 188 110 195 113 107 86 71 64 135 272 143 130 131 130 114 98 84 90 67 46 65 35 38 22 14 7 3 357 354 0 359 350 347 359 16 358 334 336 336 331 316 322 330 334 334 0 354 340 339 331 280 261 244 225 214
165 294 19 11 9 300 296 252 313 318 268 241 285 325 306 295 326 319 317 292 212 234 233 283 281 288 268 242 180 167 173 123 118 127 132 90 99 114 142 134 307 157 147 131 138 133 123 110 81 63 70 340 71 32 24 25 356 1 336 7 354 356 347 355 359 10 351 336 331 337 328 324 335 339 348 344 354 357 343 336 331 303 279 244 213 235
201 83 340 356 300 267 259 337 324 337 303 327 339 343 329 311 269 301 308 300 294 293 231 241 289 271 278 272 230 153 143 106 125 151 171 140 133 141 129 111 303 221 206 164 167 131 105 83 86 64 28 22 44 38 26 18 356 339 8 10 344 357 352 348 12 2 346 341 339 340 342 338 346 348 353 356 348 349 344 331 316 312 293 259 207 184
35 47 276 294 350 277 300 314 337 59 305 311 82 343 308 332 311 286 275 264 263 274 93 116 278 284 289 272 255 135 160 164 194 170 182 152 157 151 126 117 149 291 216 185 167 169 111 105 77 61 59 18 41 36 11 21 327 13 359 357 348 351 1 349 6 0 343 339 338 338 334 332 334 336 339 342 340 354 337 325 317 334 323 296 218 192
295 76 305 213 251 337 28 297 349 15 305 336 25 14 327 297 304 305 304 294 277 280 284 163 192 299 281 285 160 145 178 170 172 191 205 191 157 124 134 141 121 198 262 160 247 175 150 75 71 41 42 37 50 27 359 15 324 8 358 10 355 351 1 11 0 1 344 341 336 335 328 335 335 336 338 346 343 2 341 333 335 344 345 331 260 196
300 305 340 340 7 243 19 22 267 253 313 310 21 342 314 309 305 302 294 292 287 291 270 251 217 258 282 293 266 160 178 168 156 164 153 42 347 173 157 148 123 160 226 288 236 157 162 119 71 48 13 45 36 30 359 359 326 26 345 14 0 345 12 16 355 354 345 341 334 328 332 336 337 332 340 336 341 359 353 339 347 338 342 356 330 257
153 4 350 0 285 1 95 265 349 12 291 327 336 307 284 270 252 268 287 289 303 315 299 293 349 283 287 310 260 60 101 143 180 227 212 164 207 206 156 130 128 132 113 294 302 239 104 91 96 21 36 30 51 24 356 353 340 360 359 355 3 360 23 5 2 354 347 338 334 331 336 334 333 339 332 336 348 355 355 352 352 342 326 351 319 70
21 311 20 287 353 3 343 333 352 294 313 314 295 281 279 282 306 306 295 302 309 269 274 36 79 322 290 10 63 109 325 155 191 192 205 161 169 165 154 159 151 130 132 254 226 198 112 76 123 80 51 22 40 353 13 343 353 360 349 356 0 17 12 2 356 354 342 341 338 337 340 337 336 340 336 338 345 360 353 3 353 352 343 354 75 115
182 165 207 83 17 321 319 270 254 237 199 235 299 320 319 297 258 228 262 239 275 277 96 273 9 77 289 196 77 87 155 159 199 54 162 174 153 161 167 172 160 138 160 209 239 185 141 160 216 105 61 34 28 355 341 6 2 350 353 345 9 14 7 0 356 349 342 337 337 337 337 333 333 335 337 338 343 355 356 359 351 356 354 3 47 52
318 197 42 145 75 274 310 312 48 289 337 314 309 301 308 318 334 291 215 241 229 268 28 22 322 260 232 44 41 56 30 73 111 131 115 168 183 159 152 161 150 146 176 212 227 117 178 186 64 53 20 40 341 3 347 9 1 346 345 7 7 359 4 1 351 346 344 339 336 337 334 332 334 335 335 339 334 353 355 358 348 359 2 6 14 6
321 307 238 121 197 57 332 307 350 315 10 323 293 347 304 311 287 296 309 280 313 68 48 263 51 257 301 92 65 72 69 23 48 120 103 93 123 157 164 158 152 172 178 212 223 141 116 87 90 68 40 20 342 1 341 360 357 9 334 26 354 356 356 1 352 349 343 338 333 328 329 332 331 337 336 337 336 345 346 349 348 352 2 4 19 11
303 191 342 329 70 40 295 9 6 326 311 306 309 306 1 345 1 326 319 347 328 323 323 13 277 320 292 90 341 52 55 72 61 84 95 90 85 115 142 154 154 179 191 208 213 116 147 116 107 91 56 36 17 338 348 348 14 325 347 14 3 348 351 356 3 348 344 340 335 327 332 332 334 330 336 333 335 345 339 345 340 352 355 353 10 24
325 353 174 35 327 312 336 17 327 351 287 299 330 351 308 5 25 286 331 311 309 322 320 296 339 43 88 89 67 81 77 78 81 107 121 128 109 127 131 154 180 196 209 203 138 162 117 115 96 74 96 64 346 328 8 360 17 325 35 9 1 350 339 353 1 355 344 340 335 335 331 339 337 332 331 334 338 339 338 332 337 335 344 352 352 15
339 59 288 185 185 81 2 334 22 345 305 18 315 331 1 333 283 317 273 240 305 265 268 311 263 103 93 78 62 52 57 76 96 113 132 132 150 156 173 201 208 190 212 163 74 90 126 123 113 154 59 40 348 345 10 16 9 337 30 5 347 338 328 358 8 356 349 335 336 335 336 340 338 333 334 333 328 331 334 326 323 324 332 10 358 352
324 320 150 327 306 108 4 337 311 320 355 290 300 10 312 262 331 317 325 351 258 283 291 244 313 237 184 77 145 78 54 29 86 87 122 125 144 160 161 188 129 74 74 85 110 110 117 146 126 56 50 11 335 327 353 31 3 351 355 7 337 327 335 11 20 1 348 339 334 338 338 334 333 329 327 327 328 331 330 328 323 322 319 353 337 357
358 301 142 122 325 112 126 37 217 183 331 334 342 307 295 1 190 229 219 302 328 294 315 305 306 61 6 38 24 75 52 99 1 109 124 149 142 143 170 119 200 123 125 110 108 116 105 67 71 87 52 358 332 301 10 338 54 4 4 7 354 339 353 24 19 1 348 343 338 336 339 335 328 323 324 325 323 323 320 323 324 320 323 318 322 322
313 308 288 133 319 43 308 292 7 327 143 312 317 311 36 297 322 293 357 343 291 284 295 308 306 54 42 32 36 44 32 36 296 67 189 147 120 162 202 193 196 157 97 10 128 100 90 88 75 73 46 355 316 318 335 33 23 11 357 353 329 349 10 359 4 358 344 339 340 330 330 329 326 330 326 323 320 314 318 316 317 316 320 325 322 310
332 1 296 335 275 273 349 306 93 315 339 348 308 349 324 330 314 297 292 313 328 329 304 305 292 94 57 12 27 47 22 72 18 118 225 208 185 214 200 94 76 102 138 148 42 51 123 122 110 61 24 322 308 319 330 48 49 0 346 349 5 12 359 0 355 351 343 341 341 333 334 328 327 324 327 324 324 318 310 306 310 317 316 315 309 312
325 332 313 305 293 359 166 230 354 355 5 320 338 344 348 305 346 329 330 111 280 277 326 312 308 94 39 36 18 2 5 356 237 143 100 124 254 256 110 94 120 157 102 104 108 79 30 50 53 29 12 289 318 312 21 76 30 358 11 351 9 354 352 8 357 349 346 342 335 334 335 329 336 335 333 332 322 315 313 304 299 302 297 298 305 303
13 309 284 305 345 187 224 85 26 39 36 352 330 359 7 337 348 320 296 16 346 305 317 254 307 66 300 53 50 31 27 5 358 2 160 167 243 264 150 155 151 113 113 108 106 94 80 80 38 353 292 304 333 344 354 25 26 17 5 16 12 343 347 7 10 351 341 341 334 336 335 337 338 339 339 328 325 321 325 322 319 319 310 314 323 318
322 261 265 264 148 358 354 58 36 14 329 239 179 139 294 2 359 313 320 333 312 301 303 348 270 107 104 109 101 94 96 69 1 103 330 324 227 211 113 99 106 129 115 106 106 108 72 40 45 314 304 330 339 328 12 20 3 19 0 22 12 335 324 345 28 7 338 339 341 343 337 339 336 343 334 327 329 334 333 330 328 327 322 326 320 317
295 70 321 309 290 36 357 349 316 333 306 84 14 77 23 349 359 334 311 282 283 298 9 308 296 86 336 178 149 156 93 86 46 9 48 302 316 63 94 83 101 114 139 145 149 160 166 127 236 317 350 349 339 339 357 358 352 14 6 33 5 317 327 3 35 6 351 341 349 341 339 342 343 338 339 333 336 340 336 336 328 312 327 343 333 331
293 310 317 307 311 298 339 296 355 348 23 1 147 134 171 56 25 322 277 340 272 10 3 282 271 30 13 324 320 339 15 24 26 119 74 319 318 9 28 7 3 160 139 80 84 129 144 186 357 358 12 1 335 328 326 331 353 348 355 21 340 316 353 340 19 6 352 348 344 345 349 354 350 341 338 332 339 328 327 325 337 326 326 321 349 2
291 304 297 312 303 298 334 330 29 281 345 347 341 324 309 260 217 246 296 264 286 351 316 277 287 322 331 342 328 328 342 356 43 6 336 30 34 18 265 192 207 110 74 46 295 71 105 151 147 37 51 8 324 322 317 320 9 345 357 2 329 357 351 320 12 13 8 350 355 347 354 353 350 328 326 336 332 318 323 325 324 330 359 358 1 9
279 278 276 264 282 294 251 265 311 304 246 198 222 262 279 314 300 211 249 290 19 324 279 54 351 334 319 324 306 309 319 329 4 4 285 137 189 193 220 215 139 97 269 248 227 171 137 82 81 46 7 359 335 324 305 343 357 339 5 341 331 346 340 310 24 27 13 355 358 358 353 344 336 327 330 330 314 308 304 317 354 350 20 7 2 7
286 290 294 297 280 272 276 283 272 267 274 271 215 170 165 213 229 191 234 255 283 266 278 313 313 312 311 314 302 301 308 9 35 13 23 2 350 334 319 290 286 293 282 263 255 140 165 157 131 131 13 357 330 313 329 343 345 336 349 326 336 333 341 334 6 23 24 5 359 350 347 342 340 314 327 322 322 337 341 357 7 358 24 14 11 12
329 271 298 291 298 294 299 299 289 280 274 255 255 225 207 192 201 197 230 261 272 286 289 288 294 296 296 287 300 1 40 11 23 49 349 230 239 220 250 284 295 301 291 298 307 87 126 140 121 147 136 276 315 333 336 340 335 339 334 337 341 323 340 332 348 39 25 16 359 341 345 347 338 329 320 328 335 347 356 2 10 13 24 21 16 10
229 301 332 310 296 290 308 352 307 279 254 252 248 267 251 171 136 145 325 299 338 312 277 277 275 275 273 306 20 37 10 306 226 235 274 358 336 336 330 308 307 301 296 257 276 243 173 162 143 112 303 6 11 332 323 352 337 329 325 339 334 337 343 331 354 52 40 29 0 351 347 347 341 337 353 338 345 355 359 1 14 23 15 21 21 18
214 294 343 329 305 294 267 233 271 269 267 264 304 73 114 114 170 199 207 207 177 231 357 319 280 259 298 40 284 293 164 306 303 254 198 192 230 220 241 267 269 291 292 293 287 338 100 0 164 110 47 34 344 319 323 331 344 324 324 340 331 337 335 310 53 37 37 28 12 359 354 345 339 336 334 334 349 352 350 10 17 17 6 23 15 21
271 294 294 267 286 285 289 267 315 313 295 253 282 219 190 188 210 142 223 172 187 166 197 251 256 272 346 287 299 323 316 285 252 304 312 313 284 246 261 272 306 286 295 32 57 356 38 56 41 50 74 40 348 333 344 357 341 317 324 317 317 323 328 308 87 52 52 32 7 6 354 338 324 316 341 345 335 342 8 20 22 18 6 13 19 23
259 260 269 15 295 295 302 316 271 284 277 1 10 354 194 202 186 156 241 221 216 187 228 262 292 321 318 312 302 304 281 293 297 255 257 289 319 329 352 0 325 273 246 264 75 82 47 41 36 51 57 38 3 356 352 321 288 323 329 305 320 348 334 305 59 61 50 43 14 9 356 335 338 343 339 337 353 4 23 21 26 28 6 356 25 37
279 280 272 135 239 268 285 284 293 270 281 229 147 293 283 127 182 217 237 232 221 208 227 258 278 293 301 293 294 289 291 276 219 233 251 138 338 340 282 218 207 270 347 41 140 156 106 116 129 128 111 61 27 339 318 328 349 354 294 294 353 17 319 307 57 62 44 38 20 15 359 346 354 347 348 354 2 6 10 26 34 44 20 351 23 34
271 263 279 259 256 269 274 292 274 323 132 269 252 239 266 247 0 279 273 274 273 249 221 240 252 260 263 286 290 302 291 0 194 226 220 156 178 227 355 5 26 20 8 33 91 78 91 95 88 88 75 50 35 8 335 344 8 303 292 316 27 9 312 324 45 50 36 19 39 19 12 354 346 343 344 360 7 12 9 2 13 28 355 327 79 59
261 257 258 277 266 275 288 289 278 236 140 198 273 268 157 223 188 307 331 310 302 246 242 253 284 296 320 307 333 303 328 256 264 241 172 192 142 198 80 57 20 66 76 87 108 130 114 85 72 74 78 91 88 67 303 8 323 306 317 334 23 321 317 356 27 41 39 26 24 38 13 7 2 3 353 3 4 358 356 10 360 352 334 347 58 63
262 269 148 202 270 266 287 296 290 289 292 126 162 246 157 132 3 254 264 295 127 87 77 324 333 342 312 333 343 9 308 278 260 80 90 107 116 115 90 93 102 95 101 104 115 103 106 102 103 100 79 100 130 209 339 329 303 295 293 324 345 318 9 347 5 32 43 38 28 18 23 10 9 360 356 354 1 355 337 359 352 328 321 316 49 51
275 262 241 219 265 273 273 280 283 290 262 274 130 191 171 348 344 338 268 256 115 308 59 299 342 346 333 353 355 317 305 293 81 119 108 107 115 95 229 135 132 123 122 112 105 118 111 123 111 100 140 143 195 175 129 287 289 286 303 359 331 358 4 4 346 10 29 80 102 62 27 10 13 1 4 6 360 349 350 351 328 324 326 318 47 49
282 276 276 263 258 261 282 276 282 273 278 170 178 234 160 37 317 301 277 226 128 12 81 352 347 345 343 10 306 291 319 292 92 117 137 130 127 116 32 141 141 140 145 147 131 122 110 108 126 142 190 189 166 93 171 296 291 296 307 17 327 35 7 303 342 349 41 66 110 116 63 51 20 8 0 354 344 345 336 288 326 324 326 307 28 48
292 278 255 271 277 274 249 274 273 269 94 46 44 150 300 209 266 251 260 83 128 92 320 321 318 8 332 317 327 304 18 42 87 128 176 132 185 139 179 126 138 162 155 148 151 112 140 137 130 159 200 212 86 133 148 268 265 282 322 313 23 20 318 341 351 33 1 346 88 80 73 34 18 357 309 330 306 327 332 325 338 346 6 341 30 81
249 242 242 230 254 267 283 275 270 282 114 300 302 298 291 328 245 272 46 12 32 227 215 173 268 333 334 286 325 334 93 131 119 174 175 186 144 140 134 183 138 167 161 75 109 138 141 123 138 162 201 217 169 150 223 232 276 289 25 307 35 343 350 315 353 51 75 331 43 86 101 122 167 266 259 277 300 174 233 235 160 142 2 288 184 164
339 322 296 293 291 270 255 274 288 280 173 238 304 302 8 263 349 332 304 235 32 329 0 5 346 321 282 295 307 301 279 175 176 192 180 167 183 163 180 137 172 148 111 121 139 165 173 158 161 172 184 164 181 182 217 231 263 287 345 312 127 234 290 17 314 1 82 22 5 44 115 157 208 192 271 339 288 2 49 334 334 106 164 245 242 182
348 282 278 267 313 290 280 271 308 53 185 222 315 206 232 197 313 293 288 0 324 309 325 303 224 207 261 279 279 266 257 233 196 201 197 186 170 177 152 180 162 172 143 153 155 169 202 207 163 175 168 173 175 191 192 245 210 260 355 281 49 43 280 222 15 21 23 92 2 355 30 41 338 3 78 194 26 1 71 11 346 6 242 237 315 289
117 257 82 282 1 304 299 304 289 356 163 214 239 243 207 210 216 258 298 284 212 256 290 272 295 25 3 331 322 326 293 257 249 214 216 212 185 175 180 178 168 177 180 153 172 169 155 233 200 159 174 178 184 155 214 200 233 183 223 134 196 244 151 261 109 47 300 119 99 357 339 129 114 2 319 331 96 36 51 60 15 1 352 350 43 23
166 180 129 256 273 316 297 280 317 303 290 294 230 252 277 270 262 295 348 311 289 281 286 296 321 282 250 207 273 315 300 284 256 231 212 207 188 187 176 185 180 185 209 171 189 173 165 199 226 154 181 185 153 171 204 266 232 25 217 128 204 302 127 352 35 116 22 325 104 85 79 336 130 134 26 355 13 31 45 62 44 14 1 359 356 19
60 351 177 288 316 315 293 63 238 269 267 255 251 248 253 250 255 284 261 249 283 270 252 279 309 312 303 299 279 296 318 312 275 253 225 213 220 196 167 190 181 186 222 180 182 138 175 186 161 179 173 245 147 186 226 206 178 195 24 204 160 195 209 184 269 273 118 324 328 137 119 22 3 344 86 34 24 26 20 56 61 37 22 12 5 1
121 45 315 286 289 272 280 294 289 294 276 268 284 272 246 265 318 92 51 329 303 269 252 252 268 309 290 275 262 205 189 266 286 266 242 224 225 219 174 187 191 184 191 222 199 151 167 165 193 204 173 206 201 173 208 149 177 181 198 156 224 192 179 155 157 324 351 219 225 62 332 168 222 250 101 75 63 37 28 34 71 61 40 23 12 7
274 124 282 277 267 267 262 258 308 5 342 341 315 323 53 28 336 316 183 223 231 243 255 260 212 220 254 272 280 266 260 266 282 276 251 234 225 219 204 179 185 175 181 197 225 128 165 169 195 213 205 212 178 175 169 163 174 192 165 208 188 236 161 148 116 228 256 252 232 121 208 117 107 17 108 120 95 73 47 25 43 81 74 43 37 29
308 284 306 303 285 284 288 292 25 351 340 321 320 331 324 307 305 305 304 298 298 294 273 259 258 246 249 244 246 247 233 232 267 273 251 248 218 220 209 181 178 170 193 185 212 150 165 178 192 198 219 209 205 157 169 165 187 185 172 203 202 195 201 155 193 217 227 265 289 98 311 211 144 181 137 124 127 114 76 42 48 47 100 109 68 97
257 276 287 278 279 279 300 299 338 317 293 285 310 328 332 335 335 307 296 294 290 283 277 281 285 279 274 260 228 238 231 209 233 269 261 237 217 213 199 176 182 176 194 184 209 171 171 182 199 189 206 209 190 176 178 168 192 187 192 185 195 168 193 186 219 229 226 178 109 88 73 294 91 337 133 129 136 139 130 121 58 39 46 77 94 62